Regional Weather Roundup
Issued by NWS

Home | Current Version | Previous Version | Text Only | Print | Product List | Glossary On
Versions: 1 2 3 4 5 6 7 8 9 10 11 12 13 14 15 16 17 18 19 20 21 22 23 24 25 26 27 28 29 30 31 32 33 34 35 36 37 38 39 40 41 42 43 44 45 46 47 48 49 50
000
ASUS44 KFWD 061415
RWRTX
NORTH TEXAS HOURLY WEATHER ROUNDUP
NATIONAL WEATHER SERVICE FORT WORTH TX
800 AM CST SAT FEB 06 2016

NOTE: "FAIR" INDICATES FEW OR NO CLOUDS BELOW 12,000 FEET WITH NO
SIGNIFICANT WEATHER AND/OR OBSTRUCTIONS TO VISIBILITY.

TXZ118-119-061500-
DALLAS/FORT WORTH METROPLEX

CITY           SKY/WX    TMP DP  RH WIND       PRES   REMARKS
DFW AIRPORT    CLOUDY    38  33  82 NW9       30.27R WCI  31
DALLAS LOVE    CLOUDY    40  37  89 NE5       30.27S WCI  37
FTW MEACHAM    CLEAR     37  28  70 NW14      30.28R WCI  28
DAL-EXECUTIVE  MOCLDY    37  35  92 N7        30.26R WCI  32
FTW-ALLIANCE   PTCLDY    34  28  79 NW12      30.29R WCI  25
FTW-NAS-JRB    CLEAR     38  29  70 NW15      30.30R WCI  29
FTW-SPINKS     CLEAR     36  28  75 NW10      30.29R WCI  28
ARLINGTON      CLEAR     38  27  64 NW9       30.27R WCI  31
GRAND PRAIRIE  CLEAR     37  27  65 NW7       30.28  WCI  32
ADDISON        CLOUDY    41  37  87 CALM      30.28
MESQUITE       CLEAR     41  37  87 NE6       30.28R WCI  37
LANCASTER      PTCLDY    32  31  96 N6        30.28R FOG     WCI  27
$$

TXZ091>094-102>105-117-120-121-131>134-061500-
NORTH CENTRAL TEXAS

CITY           SKY/WX    TMP DP  RH WIND       PRES   REMARKS
SHRMAN/DENISON RAIN      38  36  90 NE10      30.34R WCI  31
GAINESVILLE    CLOUDY    40  35  84 NE9       30.34R WCI  34
BOWIE          CLEAR     32  29  88 NW6       30.32R WCI  27
BRIDGEPORT     CLEAR     37  31  79 N12G20    30.33R WCI  29
DECATUR        CLEAR     33  28  82 N7        30.30R WCI  27
DENTON         CLOUDY    40  36  86 N8        30.30R WCI  34
MCKINNEY       CLOUDY    42  37  82 NE9       30.29R WCI  37
GREENVILLE     CLOUDY    41  37  87 NE6       30.30R WCI  37
ROCKWALL       CLOUDY    42  38  85 E10       30.26R WCI  36
TERRELL        CLOUDY    41  37  86 E6        30.27R WCI  37
WAXAHACHIE     CLEAR     35  30  81 NW9       30.27R WCI  28
CLEBURNE       PTCLDY    36  32  87 NW13      30.28R WCI  27
GRANBURY       PTCLDY    41  34  75 W17G23    30.30R WCI  33
$$

TXZ083>090-098>101-113>116-127>130-139>142-154-155-061500-
WESTERN NORTH TEXAS

CITY           SKY/WX    TMP DP  RH WIND       PRES   REMARKS
WICHITA FALLS  PTCLDY    33  26  75 NW13      30.36R WCI  24
WF-KICKAPOO    CLEAR     36  27  72 NW9       30.38R WCI  29
VERNON         CLEAR     32  20  60 NW10      30.39R WCI  24
ABILENE        CLEAR     34  22  61 NW13      30.39R WCI  25
ABILENE-DYESS  CLEAR     34  21  58 NW12      30.39R WCI  25
BRECKENRIDGE   CLEAR     38  25  60 MISG      30.37R
GRAHAM         CLEAR     36  27  72 NW13      30.34R WCI  27
MINERAL WELLS  CLEAR     39  33  79 NW20G25   30.30R WCI  29
STEPHENVILLE   CLEAR     39  31  73 NW15      30.33R WCI  30
COMANCHE       CLEAR     38  26  62 NW14G23   30.34R WCI  30
BROWNWOOD      CLEAR     37  23  56 NW16      30.37R WCI  28
COLEMAN        CLEAR     38  22  51 NW10G21   30.38R WCI  31
$$

TXZ143>147-156>162-174-175-061500-
CENTRAL TEXAS

CITY           SKY/WX    TMP DP  RH WIND       PRES   REMARKS
WACO           CLEAR     38  29  70 NW6       30.28R WCI  33
WACO-TSTC      CLEAR     36  30  80 NW8       30.29  WCI  29
WACO-MCGREGOR  CLEAR     41  31  67 NW13G18   30.28R WCI  34
HILLSBORO      CLEAR     35  29  79 NW12      30.26S WCI  26
CORSICANA      CLEAR     38  30  73 W9        30.27R WCI  31
MEXIA          CLEAR     37  29  72 W8        30.26R WCI  31
HEARNE         CLEAR     38  32  79 W3        30.31R
CAMERON        CLEAR     42  30  61 NW10      30.30R WCI  36
TEMPLE         PTCLDY    42  29  59 NW16      30.29R WCI  34
KILLEEN        CLEAR     42  27  55 NW18G25   30.29R WCI  33
KILLEEN-SKYLRK CLEAR     42  27  55 NW10      30.31R WCI  36
FORT HOOD      CLEAR     41  28  57 NW14      30.28R WCI  34
GATESVILLE     CLEAR     43  30  61 NW12G26   30.32R WCI  37
HAMILTON       CLEAR     39  30  70 NW14      30.31S WCI  31
LAMPASAS       CLEAR     40  27  59 W14       30.31R WCI  32
$$

TXZ095>097-106>112-122>126-135>138-148>153-164>167-061500-
EAST TEXAS

CITY           SKY/WX    TMP DP  RH WIND       PRES   REMARKS
PARIS          CLOUDY    39  30  70 SW8       30.31S WCI  34
SULPHUR SPRNGS CLOUDY    41  41  99 CALM      30.32S FOG
MOUNT PLEASANT PTCLDY    38  38  97 NE3       30.33R
GILMER         RAIN      38  37  97 CALM      30.31R
MINEOLA        CLOUDY    43  39  87 NE3       30.30R
TYLER          MOCLDY    42  36  79 SE10      30.27R WCI  36
LONGVIEW       LGT RAIN  40  37  89 SE6       30.29R WCI  36
MARSHALL       CLOUDY    37  35  90 CALM      30.33S
ATHENS         CLEAR     37  37 100 E3        30.26S
PALESTINE      MOCLDY    39  38  99 E3        30.28S
JACKSONVILLE   MOCLDY    38  37  93 CALM      30.29R
HENDERSON      CLOUDY    40  37  88 S5        30.31R WCI  36
CENTER         CLOUDY    40  39  95 SE5       30.31S WCI  37
NACOGDOCHES    CLOUDY    39  36  87 E8        30.29S WCI  34
LUFKIN         CLOUDY    39  38  96 E7        30.30R WCI  34
$$

SUPPLEMENTAL OBSERVATIONS (CENTRAL)

CITY           SKY/WX    TMP DP  RH WIND       PRES   REMARKS
LAKE TEXOMA      N/A     37  34  87 NE6         N/A  WCI  33
CADDO GRASSLND   N/A     37  34  87 VRB1        N/A
PAT MAYSE LAKE   N/A     37  32  81 W1          N/A
GREENVILLE       N/A     39  36  87 NE9         N/A  WCI  33
CEDAR HILL       N/A     37  30  75 NW6         N/A  WCI  33
ATHENS           N/A     43  39  87 SE8         N/A  WCI  38
LAKE LIMESTONE   N/A     39  34  81 W5          N/A  WCI  36
MCGREGOR         N/A     41  32  70 NW8         N/A  WCI  36
TEMPLE           N/A     43  28  56 W9G17       N/A  WCI  37
$$

SUPPLEMENTAL OBSERVATIONS (WEST)

CITY           SKY/WX    TMP DP  RH WIND       PRES   REMARKS
MILLERS CREEK    N/A     34  25  69 NW6         N/A  WCI  29
POSSUM KINGDOM   N/A     37  27  65 NW12        N/A  WCI  30
GRANBURY         N/A     41  32  70 NW20G26     N/A  WCI  32
COMANCHE         N/A     39  25  56 NW17        N/A  WCI  30
HAMBY            N/A     34  23  64 NW8         N/A  WCI  27
IVIE RESERVOIR   N/A     37  23  56 W12         N/A  WCI  30
COLORADO BEND    N/A     41  25  52 N12G20      N/A  WCI  34
$$

SUPPLEMENTAL OBSERVATIONS (EAST)

CITY           SKY/WX    TMP DP  RH WIND       PRES   REMARKS
CLARKSVILLE      N/A     37  28  70 N2          N/A
TEXARKANA        N/A     34  30  86 CALM        N/A
LINDEN           N/A     36  30  80 CALM        N/A
CADDO LAKE       N/A     36  32  87 CALM        N/A
GILMER           N/A     39  36  87 E1          N/A
HENDERSON        N/A     39  36  87 S6          N/A  WCI  35
N SABINE NF      N/A     37  32  81 MISG        N/A
S SABINE NF      N/A     39  36  87 E5          N/A  WCI  36
$$

SUPPLEMENTAL OBSERVATIONS ARE A COLLECTION OF AUTOMATED INSTRUMENTS
THAT ARE MAINTAINED BY A VARIETY OF FEDERAL AND STATE AGENCIES.
CERTAIN ELEMENTS...SUCH AS HUMIDITY VALUES AND SUSTAINED WIND
SPEEDS...MAY BE APPROXIMATED.




USA.gov is the U.S. government's official web portal to all federal, state and local government web resources and services.